sat.trackr.live / text

‹ back to catalog

GCOM-C (SHIKISAI)

NORAD 43065 · 2017-082A

PAYLOAD ACTIVE UNKNOWN

§ Identity

Operator
Country
JPN
Launch date
2017-12-23
Launch site
TANSC
Launch vehicle
Mass (kg)
RCS (m²)

External: N2YO · Heavens-Above · Gunter

§ Orbital elements

Epoch: 2026-09-20T04:59:24.609408Z

Period
100.89 min
Inclination
98.6200°
Eccentricity
0.0001130
Mean motion
14.27272057 rev/d
Perigee alt
800.1 km
Apogee alt
801.7 km
Semi-major
7,179.0 km
B*
2.3728e-5
RAAN
335.5604°
Arg perigee
94.0374°
Mean anomaly
266.0936°
Rev number
45,549

§ Raw data

GCOM-C (SHIKISAI)1 43065U 17082A   26263.20792372  .00000014  00000+0  23728-4 0  99972 43065  98.6200 335.5604 0001130  94.0374 266.0936 14.27272057455499

JSON: /api/v1/satellites/43065 · /tle

For live sub-satellite position, see the globe view (requires WebGL).

§ Visibility from observer

Set your observer location to see the next 7 days of passes ≥ 10°. The values pass through the URL so the page stays shareable.

No JS? Fill the form by hand. The geolocation button needs JavaScript.

§ Radio — SatNOGS DB

ModeDescriptionDownlinkUplink
BPSK S-band telemetry 2.220 GHz

1 transmitter · refreshed weekly from db.satnogs.org